Simultaneous Nadir Overpasses (SNOs) Predictions

Prediction of SNOs between NOAA-19 and TERRA Satellite Orbit:

Table of predicted SNOs for the next 14.0 days since TLE Epoch: 2/6/2016
Index Date (NOAA-19) Time (NOAA-19) Lat,Lon (NOAA-19) SZA (NOAA-19 ) Date (TERRA) Time (TERRA) Lat,Lon (TERRA) SZA (TERRA ) Distance(km) Time Diff (sec)
1 02/07/2016 02:55:31 -73.14, -38.02 91.44 02/07/2016 02:55:49 -73.15, -38.11 91.43 3.37 18
2 02/07/2016 03:46:30 72.86, 129.83 88.28 02/07/2016 03:45:18 72.97, 129.16 88.38 25.12 72
3 02/09/2016 07:38:49 -73.61,-109.87 91.67 02/09/2016 07:39:59 -73.49,-108.48 91.76 45.75 70
4 02/09/2016 08:29:45 73.16, 58.41 87.89 02/09/2016 08:29:31 73.15, 58.46 87.88 1.88 14
5 02/11/2016 13:12:55 73.22, -12.48 87.24 02/11/2016 13:13:46 73.22, -12.47 87.24 0.29 51
6 02/11/2016 14:03:50 -73.14, 154.98 92.86 02/11/2016 14:03:15 -73.15, 155.03 92.85 2.05 35
7 02/13/2016 18:47:00 -73.23, 84.04 93.50 02/13/2016 18:47:30 -73.22, 84.09 93.51 1.90 30
8 02/13/2016 19:38:04 73.13,-108.52 86.40 02/13/2016 19:36:57 73.13,-108.44 86.39 2.36 67
9 02/16/2016 00:21:14 73.21,-179.43 85.72 02/16/2016 00:21:12 73.19,-179.40 85.70 2.40 2
10 02/16/2016 01:11:58 -72.62, -10.85 94.87 02/16/2016 01:10:49 -72.70, -12.72 94.81 62.69 69
11 02/18/2016 05:04:24 73.29, 109.64 85.04 02/18/2016 05:05:26 73.29, 109.74 85.04 3.35 62
12 02/18/2016 05:55:17 -73.16, -82.79 95.10 02/18/2016 05:54:56 -73.18, -82.86 95.09 2.83 21




NCC Satellite Simultaneous Nadir Overpasses (SNOs) Prediction Service
